Preview of NWS' New Version of Forecast
This preview is not operational and should not be used for support decisions.

Regional Weather Roundup (RWR)

Issued by National Weather Service (NWS)

                            
000
ASUS45 KBOU 221510
RWRCO 

WEATHER ROUNDUP FOR COLORADO
NATIONAL WEATHER SERVICE DENVER/BOULDER CO
900 AM MDT MON JUL 22 2019

NOTE: "FAIR" INDICATES FEW OR NO CLOUDS BELOW 12000 FEET WITH NO
SIGNIFICANT WEATHER AND/OR OBSTRUCTIONS TO VISIBILITY.

COZ001>005-013-030-031-221600-
...NORTHWEST COLORADO...
  
CITY           SKY/WX    TMP DP  RH WIND       PRES   REMARKS
CRAIG          FAIR      74  50  42 E12       30.32S                  
HAYDEN         FAIR      71  51  49 E18       30.36S                  
MEEKER         FAIR      69  45  41 CALM      30.33R                  
RANGELY        FAIR      76  46  33 E10       30.23R                  
RABBIT EARS PA NOT AVBL                                               
STEAMBOAT SPGS FAIR      63  50  63 CALM      30.39S                  
WALDEN         NOT AVBL                                               
$$

COZ006>008-011-221600-
...WEST CENTRAL VALLEYS...
  
CITY           SKY/WX    TMP DP  RH WIND       PRES   REMARKS
GRAND JUNCTION FAIR      82  45  27 SE16      30.20R                  
MONTROSE       FAIR      78  47  33 MISG      30.30S                  
EAGLE          FAIR      65  45  48 CALM      30.42F                  
RIFLE          FAIR      74  49  41 NE7       30.28R                  
DELTA          FAIR      79  40  25 CALM      30.26S                  
NUCLA          FAIR      73  32  21 CALM      30.33R                  
$$

COZ017>023-064>068-221600-
...SOUTHWEST COLORADO...
  
CITY           SKY/WX    TMP DP  RH WIND       PRES   REMARKS
DURANGO        FAIR      73  46  38 CALM      30.40R                  
CORTEZ         FAIR      80  48  32 S10G24    30.31R                  
PAGOSA SPRINGS FAIR      70  45  39 CALM      30.48S                  
TELLURIDE      FAIR      68  43  40 CALM      30.57R                  
WOLF CREEK PAS NOT AVBL                                               
$$

COZ009-010-012-014-032>034-037-058>063-221600-
...CENTRAL COLORADO...
  
CITY           SKY/WX    TMP DP  RH WIND       PRES   REMARKS
ASPEN          FAIR      66  45  46 N5        30.45S                  
BUENA VISTA    FAIR      60  46  59 CALM      30.56S                  
COPPER MTN     FAIR      59  41  51 SE8       30.79S                  
BERTHOUD PASS  FAIR      48  36  61 SE13      30.84S                  
COTTONWOOD PAS NOT AVBL                                               
GUNNISON       FAIR      64  46  52 N3        30.50S                  
GRANBY         NOT AVBL                                               
KREMMLING      FAIR      61  46  59 CALM      30.49S                  
LEADVILLE      FAIR      54  45  71 CALM      30.65S                  
SALIDA         FAIR      61  51  69 CALM      30.61S                  
SUNLIGHT       FAIR      57  37  47 E6        30.70S                  
WILKERSON PASS FAIR      52  37  58 CALM      30.79R                  
$$

COZ069>075-221600-
...SAN LUIS VALLEY/SANGRE DE CRISTO MOUNTAINS...
  
CITY           SKY/WX    TMP DP  RH WIND       PRES   REMARKS
ALAMOSA        FAIR      63  48  58 VRB5      30.51R                  
DEL NORTE      FAIR      64  46  52 E3        30.54S                  
LA VETA PASS   NOT AVBL                                               
SAGUACHE       FAIR      64  45  48 CALM      30.53S                  
$$

COZ035-036-038>040-221600-
...NORTHERN COLORADO FRONT RANGE...
  
CITY           SKY/WX    TMP DP  RH WIND       PRES   REMARKS
DENVER INTL AP FAIR      71  56  58 VRB3      30.39F                  
AURORA         MOSUNNY   70  55  57 CALM      30.41S                  
FRONT RANGE AP PTSUNNY   72  59  64 S8        30.41F                  
ERIE MUNI ARPT CLOUDY    65  61  88 N5        30.43F                  
BOULDER MUN AP CLOUDY    64  61  88 CALM      30.39S                  
CENTENNIAL     FAIR      68  55  63 SE3       30.41F                  
BROOMFIELD     PTSUNNY   66  63  88 CALM      30.41F                  
FORT COLLINS   CLOUDY    66  60  81 E3        30.39S                  
LONGMONT       CLOUDY    69  61  73 NE3       30.40S HAZE             
$$

COZ041-046-047-076>085-087-088-221600-
...PIKES PEAK/PALMER DIVIDE AND SOUTHERN FOOTHILLS...
  
CITY           SKY/WX    TMP DP  RH WIND       PRES   REMARKS
COLO. SPRINGS  PTSUNNY   61  56  83 SE12      30.49S                  
A. F. ACADEMY  PTSUNNY   61  55  80 S14       30.47S                  
SCHRIEVER AFB  NOT AVBL                                               
CHEYENNE MTN   NOT AVBL                                               
ELLICOTT         N/A    N/A N/A N/A S12       30.46S                  
FALCON         CLOUDY    58  56  90 SE9G18    30.52S                  
FORT CARSON    CLOUDY    61  57  86 S9        30.45S                  
LIMON          CLOUDY    62  61  96 S12       30.43S                  
MONUMENT HILL  FAIR      59  54  82 S16G22    30.50F                  
CANON CITY     CLOUDY    66  61  82 E8G17     30.44R                  
WALSENBURG     NOT AVBL                                               
TRINIDAD       FAIR      66  56  70 CALM      30.45S                  
$$

COZ042>045-048>051-090-091-221600-
...NORTHEAST COLORADO...
  
CITY           SKY/WX    TMP DP  RH WIND       PRES   REMARKS
GREELEY ARPT   CLOUDY    69  61  75 SE10      30.37F                  
AKRON          PTSUNNY   68  61  78 SE10      30.40S                  
BURLINGTON     CLOUDY    64  62  93 E7        30.40R FOG              
WRAY           CLOUDY    64  55  72 E9        30.39S                  
YUMA           CLOUDY    59  45  58 E9        30.39S HAZE             
STERLING       CLOUDY    64  63  94 SE10      30.37S                  
HOLYOKE        CLOUDY    64  55  72 SE7       30.40R                  
FORT MORGAN    NOT AVBL                                               
$$

COZ086-089-092>099-221600-
...SOUTHEAST COLORADO...
  
CITY           SKY/WX    TMP DP  RH WIND       PRES   REMARKS
PUEBLO         FAIR      67  62  84 S5        30.40S                  
LA JUNTA       CLOUDY    68  63  84 SE10      30.39S                  
LAMAR          CLOUDY    69  61  75 SE5       30.36F                  
SPRINGFIELD      N/A     65  61  87 SW5       30.39F                  
$$